Caribou, ME

5:55 AM EDT on April 22, 2018 (GMT -0400)
Caribou Municipal

Weather History for KCAR - May, 2013

Change the Weather History Date:

Wednesday, May 8, 2013

  Actual Average Record
Temperature  
Mean Temperature 64 °F 49 °F  
Max Temperature 83 °F 60 °F 83 °F (1982)
Min Temperature 45 °F 38 °F 19 °F (1950)
Degree Days  
Heating Degree Days 1 16  
Month to date heating degree days 43 141  
Since 1 July heating degree days 8057 8907  
Cooling Degree Days 0 0  
Month to date cooling degree days 1 0  
Year to date cooling degree days 1 0  
Growing Degree Days 14 (Base 50)    
Moisture  
Dew Point 43 °F    
Average Humidity 50    
Maximum Humidity 76    
Minimum Humidity 23    
Precipitation  
Precipitation 0.00 in 0.10 in 0.91 in (1948)
Month to date precipitation T 0.78  
Year to date precipitation 8.51 10.87  
Snow  
Snow 0.00 in 0.10 in 5.80 in (1967)
Month to date snowfall 0.0 0.3  
Since 1 July snowfall 106.9 108.5  
Snow Depth 0.00 in    
Sea Level Pressure  
Sea Level Pressure 30.15 in    
Wind  
Wind Speed 8 mph (South)    
Max Wind Speed 17 mph    
Max Gust Speed 25 mph    
Visibility 10 miles    
Events      
T = Trace of Precipitation, MM = Missing Value Source: NWS Daily Summary

Daily Weather History Graph

Daily Weather History Graph

Search for Another Location

Airport or City:

Astronomy

May. 08, 2013 Rise Set
Actual Time 5:06 AM EDT 7:51 PM EDT
Civil Twilight 4:31 AM EDT 8:26 PM EDT
Nautical Twilight 3:47 AM EDT 9:11 PM EDT
Astronomical Twilight 2:55 AM EDT 10:03 PM EDT
Moon 4:17 AM EDT (5/8) 6:43 PM EDT (5/8)
Length of Visible Light 15h 55m
Length of Day
14h 45m
Waning Crescent, 2% of the Moon is Illuminated
May 8
Waning Crescent
May 9
New
May 18
First Quarter
May 25
Full
May 31
Last Quarter

Hourly Weather History & Observations

Time (EDT) Temp. Windchill Dew Point Humidity Pressure Visibility Wind Dir Wind Speed Gust Speed Precip Events Conditions
12:54 AM 55.9 °F - 39.9 °F 55% 30.13 in 10.0 mi Calm Calm - N/A   Clear
1:54 AM 53.1 °F - 39.9 °F 61% 30.14 in 10.0 mi NNE 3.5 mph - N/A   Clear
2:54 AM 52.0 °F - 39.9 °F 63% 30.15 in 10.0 mi NNE 3.5 mph - N/A   Clear
3:54 AM 51.1 °F - 39.0 °F 63% 30.15 in 10.0 mi NNE 4.6 mph - N/A   Clear
4:54 AM 48.9 °F - 37.9 °F 66% 30.17 in 10.0 mi NE 3.5 mph - N/A   Clear
5:54 AM 46.0 °F 44.8 °F 39.0 °F 76% 30.20 in 10.0 mi SSW 3.5 mph - N/A   Clear
6:54 AM 53.1 °F - 42.1 °F 66% 30.22 in 10.0 mi Calm Calm - N/A   Clear
7:54 AM 57.9 °F - 43.0 °F 58% 30.23 in 10.0 mi ESE 4.6 mph - N/A   Clear
8:54 AM 62.1 °F - 42.1 °F 48% 30.22 in 10.0 mi ESE 5.8 mph - N/A   Clear
9:54 AM 66.9 °F - 44.1 °F 44% 30.22 in 10.0 mi Variable 3.5 mph - N/A   Clear
10:54 AM 71.1 °F - 44.1 °F 38% 30.21 in 10.0 mi SSE 8.1 mph 18.4 mph N/A   Clear
11:54 AM 75.0 °F - 45.0 °F 34% 30.19 in 10.0 mi South 12.7 mph 17.3 mph N/A   Clear
12:54 PM 77.0 °F - 46.0 °F 33% 30.17 in 10.0 mi South 5.8 mph 19.6 mph N/A   Clear
1:54 PM 79.0 °F - 46.9 °F 32% 30.15 in 10.0 mi SSE 13.8 mph - N/A   Clear
2:54 PM 79.0 °F - 45.0 °F 30% 30.12 in 10.0 mi South 8.1 mph 17.3 mph N/A   Scattered Clouds
3:54 PM 79.0 °F - 37.0 °F 22% 30.11 in 10.0 mi SSW 12.7 mph 25.3 mph N/A   Scattered Clouds
4:54 PM 80.1 °F - 39.0 °F 23% 30.10 in 10.0 mi South 15.0 mph 25.3 mph N/A   Partly Cloudy
5:54 PM 78.1 °F - 44.1 °F 30% 30.09 in 10.0 mi SW 13.8 mph 23.0 mph N/A   Scattered Clouds
6:54 PM 75.9 °F - 39.0 °F 26% 30.09 in 10.0 mi SSW 12.7 mph 19.6 mph N/A   Clear
7:54 PM 73.0 °F - 43.0 °F 34% 30.09 in 10.0 mi SSW 9.2 mph - N/A   Clear
8:54 PM 70.0 °F - 39.9 °F 33% 30.11 in 10.0 mi SSW 9.2 mph 19.6 mph N/A   Clear
9:54 PM 66.0 °F - 44.1 °F 45% 30.12 in 10.0 mi South 6.9 mph 17.3 mph N/A   Clear
10:54 PM 64.0 °F - 50.0 °F 60% 30.12 in 10.0 mi South 8.1 mph - N/A   Clear
11:54 PM 62.1 °F - 50.0 °F 65% 30.12 in 10.0 mi South 8.1 mph - N/A   Clear